SCP
0 0 0 0 0 0 0 0 0 0 0 0 0 0 0 0 0 0 0 0 0 0 0 0 0 0 0 0 0 0 0 0 0 0 0 0 0 0 0 0 0 0 0 0 0 0 0
0 0 0 0 0 0 0 0 0 0 0 0 0 0 0 0 0 0 0 0 0 0 0 0 0 0 0 0 0 0 0 0 0 0 0 0 0 0 0 0 0 0 0 0 0 0 0
0 0 0 0 0 0 0 0 0 0 0 0 0 0 0 0 0 0 0 0 0 0 0 0 0 0 0 0 0 0 0 0 0 0 0 0 0 0 0 0 0 0 0 0 0 0 0
0 0 0 0 0 0 0 0 0 0 0 0 0 0 0 0 0 0 0 0 0 0 0 0 0 0 0 0 0 0 0 0 0 0 0 0 0 0 0 0 0 0 0 0 0 0 0
0 0 0 0 0 0 0 0 0 0 0 0 0 0 0 0 0 0 0 0 0 0 0 0 0 0 0 0 0 0 0 0 0 0 0 0 0 0 0 0 0 0 0 0 0 0 0
0 0 0 0 0 0 0 0 0 0 0 0 0 0 0 0 0 0 0 0 0 0 0 0 0 0 0 0 0 0 0 0 0 0 0 0 0 0 0 0 0 0 0 0 0 0 0
0 0 0 0 0 0 0 0 0 0 0 0 0 0 0 0 0 0 0 0 0 0 0 0 0 0 0 0 0 0 0 0 0 0 0 0 0 0 0 0 0 0 0 0 0 0 0
0 0 0 0 0 0 0 0 0 0 0 0 0 0 0 0 0 0 0 0 0 0 0 0 0 0 0 0 0 0 0 0 0 0 0 0 0 0 0 0 0 0 0 0 0 0 0
0 0 0 0 0 0 0 0 0 0 0 0 0 0 0 0 0 0 0 0 0 0 0 0 0 0 0 0 0 0 0 0 0 0 0 0 0 0 0 0 0 0 0 0 0 0 0
0 0 0 0 0 0 0 0 0 0 0 0 0 0 0 0 0 0 0 0 0 0 0 0 0 0 0 0 0 0 0 0 0 0 0 0 0 0 0 0 0 0 0 0 0 0 0
0 0 0 0 0 0 0 0 0 0 0 0 0 0 0 0 0 0 0 0 0 0 0 0 0 0 0 0 0 0 0 0 0 0 0 0 0 0 0 0 0 0 0 0 0 0 0
0 0 0 0 0 0 0 0 0 0 0 0 0 0 0 0 0 0 0 0 0 0 0 0 0 0 0 0 0 0 0 0 0 0 0 0 0 0 0 0 0 0 0 0 0 0 0
0 0 0 0 0 0 0 0 0 0 0 0 0 0 0 0 0 0 0 0 0 0 0 0 0 0 0 0 0 0 0 0 0 0 0 0 0 0 0 0 0 0 0 0 0 0 0
0 0 0 0 0 0 0 0 0 0 0 0 0 0 0 0 0 0 0 0 0 0 0 0 0 -0 0 0 0 0 0 0 0 0 0 0 0 0 0 0 0 0 0 0 0 0 0
0 0 0 0 0 0 0 0 0 0 0 0 0 0 0 0 0 0 0 0 0 0 0 0 0 0 0 0 -0 0 0 0 0 0 0 0 0 0 0 0 0 0 0 0 0 0 0
0 0 0 0 0 0 0 0 0 0 0 0 0 0 0 0 0 0 0 0 0 0 0 0 0 0 0 0 0 0 0 0 0 0 0 0 0 0 0 0 0 0 0 0 0 0 0
0 0 0 0 0 0 0 0 0 0 0 0 0 0 0 0 0 0 0 0 0 0 0 0 0 0 0 0 0 0 0 0 0 0 0 0 0 0 0 0 0 0 0 0 0 0 0
0 0 0 0 0 0 0 0 0 0 0 0 0 0 0 0 0 0 0 0 0 0 0 0 0 0 0 0 0 0 0 0 0 0 0 0 0 0 0 0 0 0 0 0 0 0 0
0 0 0 0 0 0 0 0 0 0 0 0 0 0 0 0 0 0 0 0 0 0 0 0 0 0 0 0 0 0 0 0 0 0 0 0 0 0 0 0 0 0 0 0 0 0 0
0 0 0 0 0 0 0 0 0 0 0 0 0 0 0 0 0 0 0 0 0 0 0 0 0 0 0 0 0 0 0 0 0 0 0 0 0 0 0 0 0 0 0 0 0 0 0
0 0 0 0 0 0 0 0 0 0 0 0 0 0 0 0 0 0 0 0 0 0 0 0 0 0 0 0 0 0 0 0 0 0 0 0 0 0 0 0 0 0 0 0 0 0 0
0 0 0 0 0 0 0 0 0 0 0 0 0 0 0 0 0 0 0 0 0 0 0 0 0 0 0 0 0 0 0 0 0 0 0 0 0 0 0 0 0 0 0 0 0 0 0
0 0 0 0 0 0 0 0 0 0 0 0 0 0 0 0 0 0 0 0 0 0 0 0 0 0 0 0 0 0 0 0 0 0 0 0 0 0 0 0 0 0 0 0 0 0 0
0 0 0 0 0 0 0 0 0 0 0 0 0 0 0 0 0 0 0 0 0 0 0 0 0 0 0 0 0 0 0 0 0 0 0 0 0 0 0 0 0 0 0 0 0 0 0
0 0 0 0 0 0 0 0 0 0 0 0 0 0 0 0 0 0 0 0 0 0 0 0 0 0 0 0 0 0 0 0 0 0 0 0 0 0 0 0 0 0 0 0 0 0 0
0 0 0 0 0 0 0 0 0 0 0 0 0 0 0 0 0 0 0 0 0 0 0 0 0 0 0 0 0 0 0 0 0 0 0 0 0 0 0 0 0 0 0 0 0 0 0
0 0 0 0 0 0 0 0 0 0 0 0 0 0 0 0 0 0 0 0 0 0 0 0 0 0 0 0 0 0 0 0 0 0 0 0 0 0 0 0 0 0 0 0 0 0 0
0 0 0 0 0 0 0 0 0 0 0 0 0 0 0 0 0 0 0 0 0 0 0 0 0 0 0 0 0 0 0 0 0 0 0 0 0 0 0 0 0 0 0 0 0 0 0
0 0 0 0 0 0 0 0 0 0 0 0 0 0 0 0 0 0 0 0 0 0 0 0 0 0 0 0 0 0 0 0 0 0 0 0 0 0 0 0 0 0 0 0 0 0 0
Wind_Speed_500mb
8 9 14 19 23 25 28 30 35 38 39 39 39 39 41 45 43 43 42 42 44 45 47 41 35 30 25 10 14 21 15 14 11 8 5 4 6 5 4 8 4 9 8 6 3 3 5
18 22 24 27 27 31 33 38 39 42 42 44 46 46 45 45 43 43 42 44 45 45 45 41 34 26 15 16 20 20 15 12 12 8 4 4 2 6 11 5 4 6 7 5 2 2 6
29 30 32 32 34 37 39 42 41 42 41 39 43 42 45 43 44 45 41 42 45 43 43 39 32 20 16 16 20 16 13 10 9 5 1 7 12 4 6 8 7 5 7 5 11 3 5
33 32 34 35 36 37 37 36 38 37 38 36 39 43 48 47 47 45 40 43 45 43 43 36 26 15 12 18 18 14 11 9 9 6 0 8 14 10 4 12 6 6 5 9 12 3 6
34 35 35 35 33 33 32 34 35 35 34 36 40 45 47 47 46 40 40 40 44 42 34 27 18 6 8 9 6 12 9 7 8 8 3 3 9 6 8 7 3 12 10 14 10 3 6
35 33 32 31 31 32 32 32 34 34 34 35 38 41 42 40 38 35 36 38 31 25 18 15 10 9 10 4 9 9 9 8 3 7 7 7 5 8 9 11 8 12 15 7 9 8 10
33 34 32 31 30 29 28 29 31 33 35 36 38 39 39 38 29 24 36 29 17 5 10 14 17 13 11 10 8 6 8 4 4 8 9 6 9 15 25 19 9 6 7 9 3 4 10
34 32 32 30 28 26 28 30 30 33 35 36 38 39 37 33 16 17 22 11 12 15 22 21 22 19 19 11 10 6 6 5 8 14 6 8 19 11 13 13 9 8 7 12 3 2 9
35 35 34 31 27 28 27 28 26 30 32 33 35 37 33 25 8 10 11 15 22 24 13 8 6 5 4 4 8 5 2 2 11 14 18 21 7 11 13 14 14 13 14 4 5 9 5
40 37 34 31 29 27 26 26 27 29 31 32 33 32 29 10 6 5 4 19 26 21 8 10 3 3 4 5 6 6 2 3 5 11 11 16 12 16 13 14 13 10 6 5 3 7 5
42 39 34 31 29 26 23 23 25 27 30 30 30 26 23 7 3 4 7 14 23 8 11 4 4 2 2 4 8 1 4 3 9 6 6 3 14 18 16 8 16 3 9 4 3 1 5
45 40 36 32 28 22 19 19 23 26 25 25 25 21 12 9 1 6 4 12 11 4 9 6 3 5 7 4 2 1 3 1 2 4 9 5 4 9 4 8 1 21 10 8 6 6 5
47 41 36 29 21 18 16 17 19 19 21 22 20 15 7 5 7 6 3 5 5 7 7 6 6 5 8 4 5 6 6 10 6 7 14 8 10 4 10 13 8 12 9 4 6 5 2
47 42 33 24 20 17 14 14 13 14 15 13 8 2 6 10 8 13 4 7 11 1 7 5 5 13 8 3 4 4 5 7 15 9 7 12 8 18 17 10 6 21 6 6 8 7 2
46 40 32 25 20 15 12 11 9 8 7 6 4 2 3 8 10 18 9 7 5 3 7 11 14 10 3 2 8 6 10 7 1 19 9 6 4 3 5 1 7 10 11 5 4 2 5
47 38 31 26 18 13 11 9 7 4 2 1 1 1 4 7 16 17 8 7 5 3 10 6 10 2 8 7 9 6 1 7 5 5 3 3 2 4 7 4 3 6 7 4 5 5 9
48 40 34 26 21 17 13 10 8 7 4 7 7 5 5 8 21 9 8 9 5 4 7 5 8 12 7 9 7 8 4 6 12 3 9 6 6 9 6 15 15 7 7 4 5 4 6
58 44 35 30 23 22 17 12 10 8 8 9 6 5 2 16 8 8 8 6 6 8 8 8 12 22 23 21 18 10 6 4 15 6 5 4 7 8 13 6 8 14 15 20 7 9 9
56 42 32 31 28 22 21 16 11 9 12 14 6 4 6 17 7 12 5 7 7 6 11 4 7 3 3 11 12 19 11 5 13 5 4 6 6 7 5 7 6 11 16 16 19 15 24
48 42 37 25 20 21 20 21 22 13 13 18 7 4 4 5 4 8 3 9 8 10 9 8 6 15 4 6 14 10 9 3 9 8 12 6 7 17 16 7 9 7 14 18 25 14 22
49 38 28 26 22 17 14 14 18 22 16 18 8 5 4 6 6 8 9 2 9 8 11 6 6 15 16 9 13 21 18 13 8 8 7 7 13 20 24 25 20 25 25 23 31 34 31
40 39 34 28 21 17 12 8 10 18 22 15 9 9 8 4 8 13 12 11 15 2 3 6 10 4 7 5 4 7 10 5 6 5 7 5 13 11 12 25 30 34 34 38 44 45 48
47 39 34 27 21 17 12 8 6 13 23 10 9 12 3 6 9 8 6 7 4 4 8 1 5 6 17 3 10 12 13 19 20 9 9 6 6 7 21 13 16 24 36 43 43 42 37
46 39 33 28 25 21 16 14 11 9 14 14 16 11 5 7 12 11 2 5 9 10 7 4 7 4 2 13 21 21 25 31 29 30 25 8 15 6 8 6 20 9 3 14 18 21 23
44 40 34 29 24 18 15 14 13 14 14 14 17 11 7 4 10 6 12 14 15 18 17 13 10 6 13 10 7 10 11 12 21 39 31 33 16 6 7 17 31 36 19 15 19 20 5
41 36 31 29 23 16 11 9 10 13 14 15 15 11 6 6 9 2 7 7 13 13 9 7 5 8 5 6 6 8 10 9 8 8 3 20 28 17 11 11 13 13 13 14 6 10 24
38 35 31 26 21 13 8 7 8 9 8 8 8 7 4 1 7 7 5 5 3 6 8 7 6 7 5 8 14 20 25 19 16 22 10 9 14 29 26 23 16 18 13 12 7 10 10
35 30 27 22 17 12 13 10 7 5 3 3 4 4 4 4 4 9 9 14 10 9 8 6 10 7 8 8 12 16 18 21 19 31 29 20 14 16 18 28 31 17 9 13 9 4 10
37 32 26 20 19 20 14 10 8 7 4 2 3 5 6 3 7 11 15 18 19 14 15 10 15 8 7 6 5 7 12 9 18 25 26 28 27 22 18 9 16 7 7 6 11 21 23
Wind_Direction_500mb
290 332 323 319 319 319 320 322 322 320 317 320 320 323 325 327 325 327 331 333 334 335 336 330 322 317 313 302 271 284 293 313 320 319 339 227 254 247 189 115 119 101 137 126 120 277 287
294 297 300 308 310 305 308 311 312 312 313 315 315 317 318 313 315 317 325 333 325 328 326 330 325 316 295 256 271 279 286 313 324 338 4 176 164 95 108 84 338 93 128 134 180 314 297
286 282 293 298 299 302 306 308 310 312 315 317 314 313 314 313 313 315 319 323 319 317 317 319 321 314 283 262 273 277 286 302 319 338 343 122 132 20 124 123 113 116 159 155 202 272 308
290 290 292 297 299 302 306 309 313 314 312 311 311 311 312 315 315 315 315 315 319 315 307 310 311 311 267 268 272 269 280 293 310 311 312 128 118 107 66 121 142 212 236 212 140 275 148
287 293 295 294 297 300 306 310 311 314 316 318 316 317 317 318 317 314 316 318 319 310 302 295 299 269 247 275 251 254 261 283 299 307 313 148 124 129 138 202 199 208 239 218 161 149 311
290 291 290 295 299 304 308 312 314 321 325 325 323 324 324 320 317 321 326 331 325 319 322 308 285 265 257 246 247 220 234 278 303 301 296 256 166 198 211 198 222 218 229 212 252 119 260
286 287 290 292 297 303 307 309 315 320 322 324 323 324 326 329 323 338 347 6 354 319 328 281 276 283 323 311 275 252 218 256 269 242 245 222 218 211 211 218 284 292 267 255 177 50 302
284 282 284 289 294 301 304 308 315 317 317 318 316 320 324 327 323 346 9 32 14 319 307 286 280 276 272 280 293 264 245 218 209 239 181 225 246 214 114 151 181 205 238 248 142 150 301
281 280 281 284 290 297 302 308 316 314 312 313 313 316 325 328 336 3 16 3 348 344 273 285 316 325 320 264 281 280 179 309 256 238 220 237 28 143 176 165 180 214 245 269 297 312 228
276 270 273 276 283 288 297 305 311 309 308 310 309 313 323 355 20 34 7 352 346 344 295 284 40 30 352 307 247 277 248 140 238 273 228 241 133 193 204 197 198 214 134 130 306 339 294
269 271 270 275 280 284 293 302 306 306 307 306 307 317 329 331 211 25 307 340 340 12 319 310 59 320 329 286 338 161 255 170 253 242 241 180 183 195 206 228 193 103 131 93 35 60 340
263 262 263 266 268 276 285 292 300 304 307 309 310 308 318 354 351 252 309 328 335 254 253 360 3 3 281 218 230 302 260 241 121 233 241 4 338 227 302 125 226 137 143 125 136 152 233
254 253 256 256 255 260 273 291 300 303 307 306 310 297 280 239 218 200 157 343 249 230 77 5 351 348 320 291 240 226 217 202 193 155 214 179 183 160 205 153 173 211 198 211 217 200 295
242 243 242 238 240 251 271 282 297 309 309 312 328 276 262 220 209 163 139 232 232 216 281 11 305 297 271 316 193 242 243 251 219 230 267 187 213 188 180 251 230 199 262 261 250 229 69
228 231 226 223 228 240 252 267 279 297 329 9 357 343 235 247 178 170 192 199 247 330 10 329 308 273 211 211 269 247 233 279 314 210 247 204 173 127 184 284 321 161 213 30 300 117 255
210 214 210 212 218 226 231 232 244 268 298 332 94 164 249 203 166 165 215 234 224 342 333 309 294 310 307 9 278 257 296 34 340 285 234 51 189 214 134 191 109 287 114 159 187 264 252
196 200 203 208 213 223 226 229 236 240 234 184 169 208 284 156 168 210 214 220 273 330 309 279 296 282 296 314 305 309 1 61 356 346 229 307 264 137 177 210 199 167 201 218 344 235 271
185 183 200 202 203 214 221 222 225 218 197 176 174 222 174 161 204 218 215 239 332 296 295 292 265 268 274 288 288 284 275 14 349 317 261 47 320 208 209 71 332 280 249 210 230 173 229
176 181 189 207 203 209 221 223 219 204 190 175 190 147 181 186 225 212 171 249 276 274 296 270 282 298 335 270 272 249 249 87 11 351 10 7 216 233 213 193 178 239 226 246 263 275 247
170 180 189 191 207 215 222 226 219 197 184 183 164 187 235 215 278 302 210 242 250 215 251 243 272 293 276 303 283 282 224 51 3 357 324 303 246 258 264 12 336 224 246 234 231 239 249
168 171 188 182 190 195 204 213 214 204 186 173 163 191 234 185 213 184 215 179 251 243 213 217 238 246 267 251 263 246 264 270 218 331 283 275 252 247 260 278 264 264 264 247 239 245 259
161 170 173 172 180 189 185 183 195 191 193 192 163 169 192 209 183 227 206 210 237 237 252 206 240 284 251 253 343 13 355 260 284 257 270 234 255 276 260 261 259 260 260 261 260 263 267
167 167 168 164 167 160 156 139 124 175 187 181 185 185 210 163 206 200 222 258 216 226 149 331 337 312 267 23 338 312 294 280 276 280 270 260 241 218 264 279 299 270 244 250 258 259 265
164 167 160 161 160 149 135 117 112 132 188 214 183 150 204 205 225 212 271 311 279 248 287 288 280 288 6 320 309 273 260 258 252 250 235 265 253 261 270 256 254 256 331 274 273 275 266
166 164 164 163 160 150 137 124 114 108 113 133 163 156 172 228 235 201 239 252 256 254 253 272 268 305 317 312 297 285 233 247 239 236 228 223 240 255 239 232 279 295 309 255 226 260 271
167 167 166 164 163 158 140 129 122 117 114 115 116 126 156 178 199 161 214 258 278 269 253 226 246 310 276 262 237 234 247 285 245 173 264 233 227 238 225 249 262 86 99 50 350 227 86
173 174 170 171 169 166 160 157 143 137 124 122 116 125 106 197 186 174 210 236 221 252 286 288 305 265 230 243 246 255 259 250 253 244 193 182 212 225 230 245 265 259 269 296 251 104 96
177 178 177 177 187 199 187 185 204 239 209 196 192 213 188 263 256 236 239 231 222 233 265 45 276 206 245 256 259 256 255 248 254 253 262 226 225 211 230 245 253 194 124 222 60 30 354
183 186 188 199 195 185 194 209 219 237 220 187 231 225 234 282 276 268 248 221 223 245 262 231 278 283 295 291 294 304 273 265 273 268 252 251 258 268 242 227 90 31 58 40 320 313 311
Wind_Speed_850mb
8 9 14 19 23 25 28 30 35 38 39 39 39 39 41 45 43 43 42 42 44 45 47 41 35 30 25 10 14 21 15 14 11 8 5 4 6 5 4 8 4 9 8 6 3 3 5
18 22 24 27 27 31 33 38 39 42 42 44 46 46 45 45 43 43 42 44 45 45 45 41 34 26 15 16 20 20 15 12 12 8 4 4 2 6 11 5 4 6 7 5 2 2 6
29 30 32 32 34 37 39 42 41 42 41 39 43 42 45 43 44 45 41 42 45 43 43 39 32 20 16 16 20 16 13 10 9 5 1 7 12 4 6 8 7 5 7 5 11 3 5
33 32 34 35 36 37 37 36 38 37 38 36 39 43 48 47 47 45 40 43 45 43 43 36 26 15 12 18 18 14 11 9 9 6 0 8 14 10 4 12 6 6 5 9 12 3 6
34 35 35 35 33 33 32 34 35 35 34 36 40 45 47 47 46 40 40 40 44 42 34 27 18 6 8 9 6 12 9 7 8 8 3 3 9 6 8 7 3 12 10 14 10 3 6
35 33 32 31 31 32 32 32 34 34 34 35 38 41 42 40 38 35 36 38 31 25 18 15 10 9 10 4 9 9 9 8 3 7 7 7 5 8 9 11 8 12 15 7 9 8 10
33 34 32 31 30 29 28 29 31 33 35 36 38 39 39 38 29 24 36 29 17 5 10 14 17 13 11 10 8 6 8 4 4 8 9 6 9 15 25 19 9 6 7 9 3 4 10
34 32 32 30 28 26 28 30 30 33 35 36 38 39 37 33 16 17 22 11 12 15 22 21 22 19 19 11 10 6 6 5 8 14 6 8 19 11 13 13 9 8 7 12 3 2 9
35 35 34 31 27 28 27 28 26 30 32 33 35 37 33 25 8 10 11 15 22 24 13 8 6 5 4 4 8 5 2 2 11 14 18 21 7 11 13 14 14 13 14 4 5 9 5
40 37 34 31 29 27 26 26 27 29 31 32 33 32 29 10 6 5 4 19 26 21 8 10 3 3 4 5 6 6 2 3 5 11 11 16 12 16 13 14 13 10 6 5 3 7 5
42 39 34 31 29 26 23 23 25 27 30 30 30 26 23 7 3 4 7 14 23 8 11 4 4 2 2 4 8 1 4 3 9 6 6 3 14 18 16 8 16 3 9 4 3 1 5
45 40 36 32 28 22 19 19 23 26 25 25 25 21 12 9 1 6 4 12 11 4 9 6 3 5 7 4 2 1 3 1 2 4 9 5 4 9 4 8 1 21 10 8 6 6 5
47 41 36 29 21 18 16 17 19 19 21 22 20 15 7 5 7 6 3 5 5 7 7 6 6 5 8 4 5 6 6 10 6 7 14 8 10 4 10 13 8 12 9 4 6 5 2
47 42 33 24 20 17 14 14 13 14 15 13 8 2 6 10 8 13 4 7 11 1 7 5 5 13 8 3 4 4 5 7 15 9 7 12 8 18 17 10 6 21 6 6 8 7 2
46 40 32 25 20 15 12 11 9 8 7 6 4 2 3 8 10 18 9 7 5 3 7 11 14 10 3 2 8 6 10 7 1 19 9 6 4 3 5 1 7 10 11 5 4 2 5
47 38 31 26 18 13 11 9 7 4 2 1 1 1 4 7 16 17 8 7 5 3 10 6 10 2 8 7 9 6 1 7 5 5 3 3 2 4 7 4 3 6 7 4 5 5 9
48 40 34 26 21 17 13 10 8 7 4 7 7 5 5 8 21 9 8 9 5 4 7 5 8 12 7 9 7 8 4 6 12 3 9 6 6 9 6 15 15 7 7 4 5 4 6
58 44 35 30 23 22 17 12 10 8 8 9 6 5 2 16 8 8 8 6 6 8 8 8 12 22 23 21 18 10 6 4 15 6 5 4 7 8 13 6 8 14 15 20 7 9 9
56 42 32 31 28 22 21 16 11 9 12 14 6 4 6 17 7 12 5 7 7 6 11 4 7 3 3 11 12 19 11 5 13 5 4 6 6 7 5 7 6 11 16 16 19 15 24
48 42 37 25 20 21 20 21 22 13 13 18 7 4 4 5 4 8 3 9 8 10 9 8 6 15 4 6 14 10 9 3 9 8 12 6 7 17 16 7 9 7 14 18 25 14 22
49 38 28 26 22 17 14 14 18 22 16 18 8 5 4 6 6 8 9 2 9 8 11 6 6 15 16 9 13 21 18 13 8 8 7 7 13 20 24 25 20 25 25 23 31 34 31
40 39 34 28 21 17 12 8 10 18 22 15 9 9 8 4 8 13 12 11 15 2 3 6 10 4 7 5 4 7 10 5 6 5 7 5 13 11 12 25 30 34 34 38 44 45 48
47 39 34 27 21 17 12 8 6 13 23 10 9 12 3 6 9 8 6 7 4 4 8 1 5 6 17 3 10 12 13 19 20 9 9 6 6 7 21 13 16 24 36 43 43 42 37
46 39 33 28 25 21 16 14 11 9 14 14 16 11 5 7 12 11 2 5 9 10 7 4 7 4 2 13 21 21 25 31 29 30 25 8 15 6 8 6 20 9 3 14 18 21 23
44 40 34 29 24 18 15 14 13 14 14 14 17 11 7 4 10 6 12 14 15 18 17 13 10 6 13 10 7 10 11 12 21 39 31 33 16 6 7 17 31 36 19 15 19 20 5
41 36 31 29 23 16 11 9 10 13 14 15 15 11 6 6 9 2 7 7 13 13 9 7 5 8 5 6 6 8 10 9 8 8 3 20 28 17 11 11 13 13 13 14 6 10 24
38 35 31 26 21 13 8 7 8 9 8 8 8 7 4 1 7 7 5 5 3 6 8 7 6 7 5 8 14 20 25 19 16 22 10 9 14 29 26 23 16 18 13 12 7 10 10
35 30 27 22 17 12 13 10 7 5 3 3 4 4 4 4 4 9 9 14 10 9 8 6 10 7 8 8 12 16 18 21 19 31 29 20 14 16 18 28 31 17 9 13 9 4 10
37 32 26 20 19 20 14 10 8 7 4 2 3 5 6 3 7 11 15 18 19 14 15 10 15 8 7 6 5 7 12 9 18 25 26 28 27 22 18 9 16 7 7 6 11 21 23
Wind_Direction_850mb
290 332 323 319 319 319 320 322 322 320 317 320 320 323 325 327 325 327 331 333 334 335 336 330 322 317 313 302 271 284 293 313 320 319 339 227 254 247 189 115 119 101 137 126 120 277 287
294 297 300 308 310 305 308 311 312 312 313 315 315 317 318 313 315 317 325 333 325 328 326 330 325 316 295 256 271 279 286 313 324 338 4 176 164 95 108 84 338 93 128 134 180 314 297
286 282 293 298 299 302 306 308 310 312 315 317 314 313 314 313 313 315 319 323 319 317 317 319 321 314 283 262 273 277 286 302 319 338 343 122 132 20 124 123 113 116 159 155 202 272 308
290 290 292 297 299 302 306 309 313 314 312 311 311 311 312 315 315 315 315 315 319 315 307 310 311 311 267 268 272 269 280 293 310 311 312 128 118 107 66 121 142 212 236 212 140 275 148
287 293 295 294 297 300 306 310 311 314 316 318 316 317 317 318 317 314 316 318 319 310 302 295 299 269 247 275 251 254 261 283 299 307 313 148 124 129 138 202 199 208 239 218 161 149 311
290 291 290 295 299 304 308 312 314 321 325 325 323 324 324 320 317 321 326 331 325 319 322 308 285 265 257 246 247 220 234 278 303 301 296 256 166 198 211 198 222 218 229 212 252 119 260
286 287 290 292 297 303 307 309 315 320 322 324 323 324 326 329 323 338 347 6 354 319 328 281 276 283 323 311 275 252 218 256 269 242 245 222 218 211 211 218 284 292 267 255 177 50 302
284 282 284 289 294 301 304 308 315 317 317 318 316 320 324 327 323 346 9 32 14 319 307 286 280 276 272 280 293 264 245 218 209 239 181 225 246 214 114 151 181 205 238 248 142 150 301
281 280 281 284 290 297 302 308 316 314 312 313 313 316 325 328 336 3 16 3 348 344 273 285 316 325 320 264 281 280 179 309 256 238 220 237 28 143 176 165 180 214 245 269 297 312 228
276 270 273 276 283 288 297 305 311 309 308 310 309 313 323 355 20 34 7 352 346 344 295 284 40 30 352 307 247 277 248 140 238 273 228 241 133 193 204 197 198 214 134 130 306 339 294
269 271 270 275 280 284 293 302 306 306 307 306 307 317 329 331 211 25 307 340 340 12 319 310 59 320 329 286 338 161 255 170 253 242 241 180 183 195 206 228 193 103 131 93 35 60 340
263 262 263 266 268 276 285 292 300 304 307 309 310 308 318 354 351 252 309 328 335 254 253 360 3 3 281 218 230 302 260 241 121 233 241 4 338 227 302 125 226 137 143 125 136 152 233
254 253 256 256 255 260 273 291 300 303 307 306 310 297 280 239 218 200 157 343 249 230 77 5 351 348 320 291 240 226 217 202 193 155 214 179 183 160 205 153 173 211 198 211 217 200 295
242 243 242 238 240 251 271 282 297 309 309 312 328 276 262 220 209 163 139 232 232 216 281 11 305 297 271 316 193 242 243 251 219 230 267 187 213 188 180 251 230 199 262 261 250 229 69
228 231 226 223 228 240 252 267 279 297 329 9 357 343 235 247 178 170 192 199 247 330 10 329 308 273 211 211 269 247 233 279 314 210 247 204 173 127 184 284 321 161 213 30 300 117 255
210 214 210 212 218 226 231 232 244 268 298 332 94 164 249 203 166 165 215 234 224 342 333 309 294 310 307 9 278 257 296 34 340 285 234 51 189 214 134 191 109 287 114 159 187 264 252
196 200 203 208 213 223 226 229 236 240 234 184 169 208 284 156 168 210 214 220 273 330 309 279 296 282 296 314 305 309 1 61 356 346 229 307 264 137 177 210 199 167 201 218 344 235 271
185 183 200 202 203 214 221 222 225 218 197 176 174 222 174 161 204 218 215 239 332 296 295 292 265 268 274 288 288 284 275 14 349 317 261 47 320 208 209 71 332 280 249 210 230 173 229
176 181 189 207 203 209 221 223 219 204 190 175 190 147 181 186 225 212 171 249 276 274 296 270 282 298 335 270 272 249 249 87 11 351 10 7 216 233 213 193 178 239 226 246 263 275 247
170 180 189 191 207 215 222 226 219 197 184 183 164 187 235 215 278 302 210 242 250 215 251 243 272 293 276 303 283 282 224 51 3 357 324 303 246 258 264 12 336 224 246 234 231 239 249
168 171 188 182 190 195 204 213 214 204 186 173 163 191 234 185 213 184 215 179 251 243 213 217 238 246 267 251 263 246 264 270 218 331 283 275 252 247 260 278 264 264 264 247 239 245 259
161 170 173 172 180 189 185 183 195 191 193 192 163 169 192 209 183 227 206 210 237 237 252 206 240 284 251 253 343 13 355 260 284 257 270 234 255 276 260 261 259 260 260 261 260 263 267
167 167 168 164 167 160 156 139 124 175 187 181 185 185 210 163 206 200 222 258 216 226 149 331 337 312 267 23 338 312 294 280 276 280 270 260 241 218 264 279 299 270 244 250 258 259 265
164 167 160 161 160 149 135 117 112 132 188 214 183 150 204 205 225 212 271 311 279 248 287 288 280 288 6 320 309 273 260 258 252 250 235 265 253 261 270 256 254 256 331 274 273 275 266
166 164 164 163 160 150 137 124 114 108 113 133 163 156 172 228 235 201 239 252 256 254 253 272 268 305 317 312 297 285 233 247 239 236 228 223 240 255 239 232 279 295 309 255 226 260 271
167 167 166 164 163 158 140 129 122 117 114 115 116 126 156 178 199 161 214 258 278 269 253 226 246 310 276 262 237 234 247 285 245 173 264 233 227 238 225 249 262 86 99 50 350 227 86
173 174 170 171 169 166 160 157 143 137 124 122 116 125 106 197 186 174 210 236 221 252 286 288 305 265 230 243 246 255 259 250 253 244 193 182 212 225 230 245 265 259 269 296 251 104 96
177 178 177 177 187 199 187 185 204 239 209 196 192 213 188 263 256 236 239 231 222 233 265 45 276 206 245 256 259 256 255 248 254 253 262 226 225 211 230 245 253 194 124 222 60 30 354
183 186 188 199 195 185 194 209 219 237 220 187 231 225 234 282 276 268 248 221 223 245 262 231 278 283 295 291 294 304 273 265 273 268 252 251 258 268 242 227 90 31 58 40 320 313 311